TimeEDT,TemperatureF,Dew PointF,Humidity,Sea Level PressureIn,VisibilityMPH,Wind Direction,Wind SpeedMPH,Gust SpeedMPH,PrecipitationIn,Events,Conditions,WindDirDegrees,DateUTC
12:54 AM,62.1,57.0,84,29.88,10.0,Calm,Calm,-,N/A,,Clear,0,2012-10-01 04:54:00
1:54 AM,62.1,57.0,84,29.88,10.0,Calm,Calm,-,N/A,,Clear,0,2012-10-01 05:54:00
2:54 AM,60.1,57.9,93,29.86,10.0,NE,3.5,-,N/A,,Clear,40,2012-10-01 06:54:00
3:54 AM,60.1,57.9,93,29.86,7.0,Calm,Calm,-,N/A,,Partly Cloudy,0,2012-10-01 07:54:00
4:54 AM,60.1,57.9,93,29.86,8.0,Calm,Calm,-,N/A,,Mostly Cloudy,0,2012-10-01 08:54:00
5:54 AM,60.1,59.0,96,29.86,7.0,NE,3.5,-,0.00,Rain,Light Rain,50,2012-10-01 09:54:00
6:54 AM,60.1,59.0,96,29.86,6.0,ENE,3.5,-,0.00,,Overcast,70,2012-10-01 10:54:00
7:54 AM,61.0,59.0,93,29.88,4.0,East,4.6,-,0.00,Rain,Light Rain,80,2012-10-01 11:54:00
8:54 AM,62.1,59.0,90,29.90,7.0,ESE,5.8,-,0.01,,Overcast,110,2012-10-01 12:54:00
9:54 AM,61.0,55.0,81,29.92,6.0,ESE,6.9,-,0.00,Rain,Light Rain,120,2012-10-01 13:54:00
10:54 AM,61.0,55.0,81,29.92,10.0,East,9.2,-,0.00,Rain,Light Rain,90,2012-10-01 14:54:00
11:07 AM,60.8,55.4,82,29.93,6.0,East,11.5,-,0.00,Rain,Light Rain,100,2012-10-01 15:07:00
11:54 AM,60.1,57.9,93,29.91,4.0,ESE,8.1,-,0.02,Rain,Light Rain,110,2012-10-01 15:54:00
12:02 PM,60.8,57.2,88,29.92,6.0,ESE,9.2,-,0.00,Rain,Light Rain,110,2012-10-01 16:02:00
12:46 PM,59.0,57.2,94,29.92,9.0,East,9.2,-,0.00,,Overcast,100,2012-10-01 16:46:00
12:54 PM,59.0,57.0,93,29.91,9.0,East,6.9,-,0.00,Rain,Light Rain,100,2012-10-01 16:54:00
1:21 PM,59.0,57.2,94,29.92,7.0,East,5.8,-,0.00,Rain,Light Rain,90,2012-10-01 17:21:00
1:54 PM,59.0,57.0,93,29.89,9.0,East,8.1,-,0.00,,Overcast,80,2012-10-01 17:54:00
2:29 PM,60.8,57.2,88,29.89,7.0,East,8.1,-,N/A,,Overcast,80,2012-10-01 18:29:00
2:54 PM,60.1,57.0,90,29.88,7.0,ENE,6.9,-,N/A,,Overcast,70,2012-10-01 18:54:00
3:54 PM,60.1,57.9,93,29.88,3.0,ENE,6.9,-,N/A,,Overcast,70,2012-10-01 19:54:00
4:37 PM,60.8,59.0,94,29.89,2.0,ENE,8.1,-,N/A,,Overcast,60,2012-10-01 20:37:00
4:42 PM,60.8,59.0,94,29.89,1.8,ENE,8.1,-,N/A,,Overcast,60,2012-10-01 20:42:00
4:54 PM,60.1,59.0,96,29.88,1.5,ENE,8.1,-,0.00,,Light Drizzle,60,2012-10-01 20:54:00
5:14 PM,60.8,59.0,94,29.90,1.0,ENE,6.9,-,0.00,,Light Drizzle,70,2012-10-01 21:14:00
5:54 PM,60.1,59.0,96,29.88,1.2,NE,6.9,-,0.00,,Light Drizzle,50,2012-10-01 21:54:00
6:54 PM,60.1,59.0,96,29.87,1.0,ENE,10.4,-,0.00,,Light Drizzle,60,2012-10-01 22:54:00
7:54 PM,60.1,59.0,96,29.87,1.2,ENE,10.4,-,0.01,,Light Drizzle,70,2012-10-01 23:54:00
8:54 PM,60.1,59.0,96,29.87,1.2,ENE,9.2,-,0.00,,Light Drizzle,70,2012-10-02 00:54:00
9:45 PM,62.6,59.0,88,29.89,0.8,ENE,8.1,-,0.00,,Light Drizzle,60,2012-10-02 01:45:00
9:54 PM,60.1,60.1,100,29.87,0.8,ENE,6.9,-,0.00,,Light Drizzle,70,2012-10-02 01:54:00
10:54 PM,60.1,60.1,100,29.86,1.0,East,8.1,-,0.00,Rain,Light Rain,80,2012-10-02 02:54:00
11:54 PM,61.0,61.0,100,29.86,1.2,East,6.9,-,0.00,Rain,Light Rain,90,2012-10-02 03:54:00